Time,TemperatureF,DewpointF,PressureIn,WindDirection,WindDirectionDegrees,WindSpeedMPH,WindSpeedGustMPH,Humidity,HourlyPrecipIn,Conditions,Clouds,dailyrainin,SoftwareType,DateUTC
2013-08-14 00:21:00,81.0,45.0,29.74,ESE,102,0.0,2.0,28,0.00,,,0.00,,2013-08-14 07:21:00,
2013-08-14 00:52:00,80.0,43.0,29.73,East,101,0.0,0.0,27,0.00,,,0.00,,2013-08-14 07:52:00,
2013-08-14 01:21:00,79.0,44.0,29.73,East,101,0.0,1.0,29,0.00,,,0.00,,2013-08-14 08:21:00,
2013-08-14 01:51:00,78.0,45.0,29.73,East,101,0.0,0.0,31,0.00,,,0.00,,2013-08-14 08:51:00,
2013-08-14 02:21:00,76.0,44.0,29.74,East,101,0.0,0.0,32,0.00,,,0.00,,2013-08-14 09:21:00,
2013-08-14 02:53:00,75.0,45.0,29.75,East,101,0.0,2.0,35,0.00,,,0.00,,2013-08-14 09:53:00,
2013-08-14 03:22:00,78.0,43.0,29.75,NW,314,2.0,5.0,29,0.00,,,0.00,,2013-08-14 10:22:00,
2013-08-14 03:52:00,81.0,43.0,29.77,NW,319,2.0,6.0,26,0.00,,,0.00,,2013-08-14 10:52:00,
2013-08-14 04:21:00,79.0,43.0,29.77,North,359,0.0,1.0,28,0.00,,,0.00,,2013-08-14 11:21:00,
2013-08-14 04:52:00,78.0,43.0,29.77,NE,39,0.0,2.0,29,0.00,,,0.00,,2013-08-14 11:52:00,
2013-08-14 05:21:00,78.0,45.0,29.77,NE,39,0.0,1.0,31,0.00,,,0.00,,2013-08-14 12:21:00,
2013-08-14 05:52:00,77.0,47.0,29.78,ENE,71,0.0,2.0,35,0.00,,,0.00,,2013-08-14 12:52:00,
2013-08-14 06:21:00,75.0,50.0,29.79,ENE,66,0.0,1.0,42,0.00,,,0.00,,2013-08-14 13:21:00,
2013-08-14 06:52:00,76.0,54.0,29.80,ENE,68,0.0,1.0,47,0.00,,,0.00,,2013-08-14 13:52:00,
2013-08-14 07:21:00,80.0,60.0,29.80,ENE,68,0.0,0.0,50,0.00,,,0.00,,2013-08-14 14:21:00,
2013-08-14 07:52:00,82.0,62.0,29.80,ENE,68,0.0,0.0,51,0.00,,,0.00,,2013-08-14 14:52:00,
2013-08-14 08:22:00,86.0,62.0,29.80,ENE,68,0.0,2.0,45,0.00,,,0.00,,2013-08-14 15:22:00,
2013-08-14 08:56:00,88.0,57.0,29.80,NNE,16,0.0,3.0,35,0.00,,,0.00,,2013-08-14 15:56:00,
2013-08-14 09:24:00,89.0,56.0,29.79,SE,136,0.0,3.0,33,0.00,,,0.00,,2013-08-14 16:24:00,
2013-08-14 10:28:00,92.0,53.0,29.79,SSE,150,1.0,3.0,27,0.00,,,0.00,,2013-08-14 17:28:00,
2013-08-14 10:55:00,94.0,58.0,29.79,WNW,293,3.0,6.0,30,0.00,,,0.00,,2013-08-14 17:55:00,
2013-08-14 11:26:00,95.0,54.0,29.78,West,264,1.0,6.0,25,0.00,,,0.00,,2013-08-14 18:26:00,
2013-08-14 11:52:00,-999.0,-99.9,29.77,WNW,295,2.0,7.0,-999,-99.99,,,-99.99,,2013-08-14 18:52:00,
2013-08-14 11:57:00,96.0,53.0,29.77,WNW,295,2.0,7.0,24,0.00,,,0.00,,2013-08-14 18:57:00,
2013-08-14 12:54:00,101.0,54.0,29.74,NW,317,2.0,7.0,21,0.00,,,0.00,,2013-08-14 19:54:00,
2013-08-14 13:52:00,103.0,53.0,29.71,West,272,4.0,10.0,19,0.00,,,0.00,,2013-08-14 20:52:00,
2013-08-14 14:23:00,105.0,54.0,29.69,WNW,288,6.0,14.0,19,0.00,,,0.00,,2013-08-14 21:23:00,
2013-08-14 14:55:00,106.0,54.0,29.67,WSW,240,6.0,13.0,18,0.00,,,0.00,,2013-08-14 21:55:00,
2013-08-14 15:23:00,106.0,52.0,29.66,West,280,6.0,14.0,17,0.00,,,0.00,,2013-08-14 22:23:00,
2013-08-14 15:54:00,106.0,52.0,29.65,West,274,6.0,13.0,17,0.00,,,0.00,,2013-08-14 22:54:00,
2013-08-14 16:24:00,106.0,52.0,29.65,WSW,238,7.0,23.0,17,0.00,,,0.00,,2013-08-14 23:24:00,
2013-08-14 16:56:00,104.0,50.0,29.65,SW,219,6.0,12.0,17,0.00,,,0.00,,2013-08-14 23:56:00,
2013-08-14 17:22:00,103.0,50.0,29.65,West,268,6.0,10.0,17,0.00,,,0.00,,2013-08-15 00:22:00,
2013-08-14 17:52:00,105.0,50.0,29.65,West,262,4.0,10.0,16,0.00,,,0.00,,2013-08-15 00:52:00,
2013-08-14 18:22:00,103.0,50.0,29.65,WSW,251,4.0,8.0,17,0.00,,,0.00,,2013-08-15 01:22:00,
2013-08-14 18:52:00,100.0,55.0,29.68,South,173,3.0,6.0,23,0.00,,,0.00,,2013-08-15 01:52:00,
2013-08-14 19:21:00,94.0,58.0,29.70,East,86,7.0,19.0,30,0.00,,,0.00,,2013-08-15 02:21:00,
2013-08-14 20:22:00,89.0,59.0,29.74,WSW,247,2.0,6.0,37,0.00,,,0.00,,2013-08-15 03:22:00,
2013-08-14 20:53:00,88.0,59.0,29.75,SSW,206,2.0,6.0,38,0.00,,,0.00,,2013-08-15 03:53:00,
2013-08-14 21:22:00,87.0,60.0,29.77,North,8,2.0,5.0,40,0.00,,,0.00,,2013-08-15 04:22:00,
2013-08-14 21:52:00,88.0,58.0,29.78,East,81,3.0,13.0,37,0.00,,,0.00,,2013-08-15 04:52:00,
2013-08-14 22:22:00,87.0,59.0,29.79,SE,138,2.0,12.0,39,0.00,,,0.00,,2013-08-15 05:22:00,
2013-08-14 22:52:00,86.0,62.0,29.80,SSW,196,2.0,4.0,44,0.00,,,0.00,,2013-08-15 05:52:00,
2013-08-14 23:21:00,84.0,62.0,29.79,WNW,300,1.0,3.0,48,0.00,,,0.00,,2013-08-15 06:21:00,
2013-08-14 23:52:00,84.0,61.0,29.78,West,276,3.0,7.0,46,0.00,,,0.00,,2013-08-15 06:52:00,